Location: Omaha
(41.2590°N, 95.9380°W)
Time: 14:39:44
(UTC-05:00)

Vanguard 3 - Pass Details

Date: 29 June 2018
Orbit: 508 x 3264 km, 33.3° (Epoch: 20 September)

Event Time Altitude Azimuth Distance (km) Brightness Sun altitude
Rises 07:58:55 0° 261° (W) 3,794 10.0 20.8°
Reaches altitude 10° 08:02:14 10° 242° (WSW) 3,224 9.7 21.4°
Maximum altitude 08:07:29 18° 202° (SSW) 3,227 10.0 22.4°
Drops below altitude 10° 08:14:38 10° 166° (SSE) 4,594 11.1 23.7°
Sets 08:20:54 0° 151° (SSE) 6,175 11.9 24.8°
